This is the latest recevied weather packets stored in our database for station/object KD9JJA. If no packets are shown the sender has not sent any weather packets the latest 10 day(s).
| Time | Temp. | Humidity | Pressure | Rain* | Wind** | Luminosity | Snow |
|---|---|---|---|---|---|---|---|
| 1777894232 | 15° C | 78% | 1009.7 hPa | 0 mm | - | 4 W/m² | - |
| 1777893928 | 14.44° C | 81% | 1009.8 hPa | 0 mm | - | 1 W/m² | - |
| 1777893624 | 14.44° C | 81% | 1009.9 hPa | 0 mm | - | 1 W/m² | - |
| 1777893321 | 14.44° C | 82% | 1009.9 hPa | 0 mm | - | 0 W/m² | - |
| 1777893017 | 14.44° C | 79% | 1009.8 hPa | 0 mm | - | 0 W/m² | - |
| 1777892714 | 13.89° C | 79% | 1009.7 hPa | 0 mm | - | 0 W/m² | - |
| 1777892404 | 13.89° C | 79% | 1009.5 hPa | 0 mm | - | 0 W/m² | - |
| 1777892099 | 13.89° C | 81% | 1009.6 hPa | 0 mm | - | 0 W/m² | - |
| 1777891797 | 13.89° C | 80% | 1009.7 hPa | 0 mm | - | 0 W/m² | - |
| 1777891494 | 13.89° C | 81% | 1009.9 hPa | 0 mm | - | 0 W/m² | - |
| 1777891189 | 13.89° C | 79% | 1010 hPa | 0 mm | - | 0 W/m² | - |
| 1777890884 | 13.89° C | 80% | 1010.2 hPa | 0 mm | - | 0 W/m² | - |
| 1777890580 | 13.89° C | 80% | 1010 hPa | 0 mm | - | 0 W/m² | - |
| 1777890276 | 13.89° C | 79% | 1010 hPa | 0 mm | - | 0 W/m² | - |
| 1777889972 | 13.89° C | 79% | 1010.1 hPa | 0 mm | - | 0 W/m² | - |
| 1777889670 | 14.44° C | 78% | 1010 hPa | 0 mm | - | 0 W/m² | - |
| 1777889367 | 14.44° C | 77% | 1010.4 hPa | 0 mm | - | 0 W/m² | - |
| 1777889065 | 14.44° C | 77% | 1010.1 hPa | 0 mm | - | 0 W/m² | - |
| 1777888762 | 13.89° C | 78% | 1010.1 hPa | 0 mm | - | 0 W/m² | - |
| 1777888459 | 13.89° C | 78% | 1010.2 hPa | 0 mm | - | 0 W/m² | - |
| 1777888154 | 13.89° C | 79% | 1010.2 hPa | 0 mm | - | 0 W/m² | - |
| 1777887852 | 13.89° C | 77% | 1010.4 hPa | 0 mm | - | 0 W/m² | - |
| 1777887549 | 13.89° C | 77% | 1010.3 hPa | 0 mm | - | 0 W/m² | - |
| 1777887244 | 13.89° C | 77% | 1010.4 hPa | 0 mm | - | 0 W/m² | - |
| 1777886940 | 13.89° C | 75% | 1010.4 hPa | 0 mm | - | 0 W/m² | - |
* Rain latest hour (hover to see other rain measurements)
** Current wind speed in m/s (hover to see current wind gust speed)